• In Kazakhstan
  • List of Countries
  • For 7 days
  • Water Temperature
  • Satellite Maps
  • Weather Map
  • News
  • Weather Widgets
  • user-avatar
    Login

    Hourly Weather Innsbruck

    Today, 27 June, Thursday

    Time Temperature Precipitation Wind Pressure Humidity
    00:00 +13°C° 0 mm 1 mps 605 mmHg 68%
    01:00 +13°C° 0 mm 1 mps 605 mmHg 67%
    02:00 +13°C° 0 mm 1 mps 605 mmHg 66%
    03:00 +13°C° 0 mm 1 mps 604 mmHg 65%
    04:00 +12°C° 0 mm 1 mps 604 mmHg 64%
    05:00 +15°C° 0 mm 1 mps 605 mmHg 59%
    06:00 +18°C° 0 mm 1 mps 606 mmHg 55%
    07:00 +20°C° 0 mm 1 mps 607 mmHg 50%
    08:00 +22°C° 0 mm 1 mps 608 mmHg 44%
    09:00 +24°C° 0 mm 1 mps 608 mmHg 38%
    10:00 +26°C° 0 mm 2 mps 609 mmHg 32%
    11:00 +26°C° 0 mm 2 mps 609 mmHg 31%
    12:00 +27°C° 0 mm 2 mps 609 mmHg 30%
    13:00 +27°C° 0 mm 3 mps 609 mmHg 29%
    14:00 +27°C° 0 mm 3 mps 608 mmHg 33%
    15:00 +26°C° 0 mm 4 mps 608 mmHg 37%
    16:00 +25°C° 0 mm 4 mps 607 mmHg 41%
    17:00 +22°C° 0.3 mm 3 mps 606 mmHg 53%
    18:00 +20°C° 0.3 mm 3 mps 605 mmHg 65%
    19:00 +18°C° 0.3 mm 2 mps 604 mmHg 78%
    20:00 +17°C° 0.2 mm 2 mps 604 mmHg 82%
    21:00 +15°C° 0.2 mm 1 mps 604 mmHg 87%
    22:00 +13°C° 0.2 mm 1 mps 603 mmHg 91%
    23:00 +12°C° 0 mm 1 mps 603 mmHg 92%

    Tomorrow, 28 June, Friday

    Time Temperature Precipitation Wind Pressure Humidity
    00:00 +12°C° 0 mm 1 mps 603 mmHg 92%
    01:00 +11°C° 0 mm 1 mps 602 mmHg 93%
    02:00 +11°C° 0 mm 1 mps 602 mmHg 93%
    03:00 +10°C° 0 mm 1 mps 602 mmHg 94%
    04:00 +10°C° 0 mm 1 mps 601 mmHg 94%
    05:00 +12°C° 0 mm 1 mps 602 mmHg 90%
    06:00 +14°C° 0 mm 1 mps 603 mmHg 87%
    07:00 +15°C° 0 mm 1 mps 603 mmHg 83%
    08:00 +18°C° 0 mm 1 mps 604 mmHg 73%
    09:00 +19°C° 0 mm 2 mps 605 mmHg 63%
    10:00 +20°C° 0 mm 2 mps 605 mmHg 53%
    11:00 +21°C° 0 mm 2 mps 605 mmHg 49%
    12:00 +22°C° 0 mm 3 mps 605 mmHg 45%
    13:00 +22°C° 0 mm 3 mps 605 mmHg 41%
    14:00 +22°C° 0 mm 3 mps 605 mmHg 42%
    15:00 +21°C° 0 mm 3 mps 605 mmHg 44%
    16:00 +21°C° 0 mm 3 mps 605 mmHg 46%
    17:00 +20°C° 0 mm 3 mps 604 mmHg 52%
    18:00 +18°C° 0 mm 2 mps 603 mmHg 59%
    19:00 +16°C° 0 mm 2 mps 603 mmHg 65%
    20:00 +14°C° 0 mm 2 mps 602 mmHg 73%
    21:00 +12°C° 0 mm 1 mps 601 mmHg 80%
    22:00 +10°C° 0 mm 1 mps 601 mmHg 88%
    23:00 +8°C° 0 mm 0 mps 600 mmHg 88%

    Day after tomorrow, 29 June, Saturday

    Time Temperature Precipitation Wind Pressure Humidity
    00:00 +8°C° 0 mm 0 mps 600 mmHg 88%
    01:00 +7°C° 0 mm 0 mps 600 mmHg 88%
    02:00 +7°C° 0 mm 0 mps 600 mmHg 87%
    03:00 +7°C° 0 mm 0 mps 599 mmHg 85%
    04:00 +7°C° 0 mm 0 mps 599 mmHg 84%
    05:00 +9°C° 0 mm 0 mps 600 mmHg 75%
    06:00 +12°C° 0 mm 0 mps 602 mmHg 66%
    07:00 +15°C° 0 mm 0 mps 603 mmHg 58%
    08:00 +17°C° 0 mm 0 mps 604 mmHg 50%
    09:00 +21°C° 0 mm 1 mps 604 mmHg 42%
    10:00 +23°C° 0 mm 1 mps 605 mmHg 35%
    11:00 +24°C° 0 mm 1 mps 605 mmHg 33%
    12:00 +24°C° 0 mm 1 mps 605 mmHg 30%
    13:00 +25°C° 0 mm 2 mps 606 mmHg 28%
    14:00 +25°C° 0 mm 2 mps 606 mmHg 30%
    15:00 +25°C° 0 mm 2 mps 605 mmHg 32%
    16:00 +25°C° 0 mm 2 mps 605 mmHg 34%
    17:00 +23°C° 0 mm 2 mps 605 mmHg 45%
    18:00 +22°C° 0 mm 1 mps 604 mmHg 55%
    19:00 +20°C° 0 mm 1 mps 603 mmHg 66%
    20:00 +18°C° 0 mm 1 mps 603 mmHg 72%
    21:00 +15°C° 0 mm 1 mps 602 mmHg 78%
    22:00 +12°C° 0 mm 1 mps 601 mmHg 85%
    23:00 +12°C° 0 mm 1 mps 601 mmHg 85%

    30 June, Sunday

    Time Temperature Precipitation Wind Pressure Humidity
    00:00 +12°C° 0 mm 1 mps 601 mmHg 86%
    01:00 +12°C° 0 mm 1 mps 601 mmHg 87%
    02:00 +12°C° 0 mm 1 mps 601 mmHg 86%
    03:00 +12°C° 0 mm 1 mps 601 mmHg 86%
    04:00 +11°C° 0 mm 1 mps 600 mmHg 85%
    05:00 +13°C° 0 mm 1 mps 601 mmHg 79%
    06:00 +15°C° 0 mm 1 mps 602 mmHg 73%
    07:00 +17°C° 0 mm 0 mps 603 mmHg 67%
    08:00 +21°C° 0 mm 1 mps 604 mmHg 59%
    09:00 +23°C° 0 mm 1 mps 605 mmHg 50%
    10:00 +25°C° 0 mm 1 mps 606 mmHg 42%
    11:00 +25°C° 0 mm 1 mps 606 mmHg 38%
    12:00 +26°C° 0 mm 2 mps 606 mmHg 34%
    13:00 +27°C° 0 mm 2 mps 607 mmHg 30%
    14:00 +27°C° 0 mm 2 mps 606 mmHg 30%
    15:00 +26°C° 0 mm 3 mps 606 mmHg 31%
    16:00 +26°C° 0 mm 3 mps 606 mmHg 32%
    17:00 +24°C° 0 mm 2 mps 606 mmHg 41%
    18:00 +21°C° 0 mm 2 mps 605 mmHg 51%
    19:00 +21°C° 0 mm 1 mps 605 mmHg 60%
    20:00 +18°C° 0 mm 1 mps 604 mmHg 65%
    21:00 +15°C° 0 mm 1 mps 603 mmHg 70%
    22:00 +13°C° 0 mm 1 mps 602 mmHg 76%
    23:00 +12°C° 0 mm 1 mps 602 mmHg 75%

    1 July, Monday

    Time Temperature Precipitation Wind Pressure Humidity
    00:00 +12°C° 0 mm 1 mps 602 mmHg 74%
    01:00 +12°C° 0 mm 1 mps 602 mmHg 73%
    02:00 +12°C° 0 mm 1 mps 601 mmHg 69%
    03:00 +11°C° 0 mm 1 mps 601 mmHg 64%
    04:00 +11°C° 0 mm 1 mps 601 mmHg 60%
    05:00 +14°C° 0 mm 1 mps 602 mmHg 54%
    06:00 +16°C° 0 mm 1 mps 603 mmHg 48%
    07:00 +19°C° 0 mm 1 mps 604 mmHg 43%
    08:00 +22°C° 0 mm 1 mps 605 mmHg 37%
    09:00 +24°C° 0 mm 1 mps 606 mmHg 32%
    10:00 +26°C° 0 mm 1 mps 607 mmHg 27%
    11:00 +26°C° 0 mm 1 mps 607 mmHg 25%
    12:00 +27°C° 0 mm 1 mps 607 mmHg 24%
    13:00 +28°C° 0 mm 1 mps 607 mmHg 23%
    14:00 +27°C° 0.1 mm 2 mps 606 mmHg 27%
    15:00 +26°C° 0.1 mm 2 mps 606 mmHg 31%
    16:00 +25°C° 0.1 mm 3 mps 605 mmHg 36%
    17:00 +21°C° 1.6 mm 2 mps 604 mmHg 53%
    18:00 +17°C° 1.6 mm 2 mps 603 mmHg 69%
    19:00 +13°C° 1.6 mm 2 mps 602 mmHg 86%
    20:00 +13°C° 1.1 mm 2 mps 602 mmHg 87%
    21:00 +13°C° 1.1 mm 2 mps 602 mmHg 87%
    22:00 +12°C° 1.1 mm 2 mps 602 mmHg 88%
    23:00 +12°C° 0.7 mm 2 mps 602 mmHg 87%

    2 July, Tuesday

    Time Temperature Precipitation Wind Pressure Humidity
    00:00 +12°C° 0.7 mm 2 mps 602 mmHg 86%
    01:00 +12°C° 0.7 mm 2 mps 602 mmHg 85%
    02:00 +11°C° 0 mm 1 mps 601 mmHg 83%
    03:00 +11°C° 0 mm 1 mps 601 mmHg 80%
    04:00 +10°C° 0 mm 1 mps 600 mmHg 78%
    05:00 +12°C° 0 mm 1 mps 601 mmHg 75%
    06:00 +14°C° 0 mm 1 mps 602 mmHg 71%
    07:00 +15°C° 0 mm 1 mps 603 mmHg 68%
    08:00 +18°C° 0.1 mm 1 mps 603 mmHg 61%
    09:00 +20°C° 0.1 mm 1 mps 604 mmHg 55%
    10:00 +21°C° 0.1 mm 2 mps 605 mmHg 48%
    11:00 +21°C° 0.6 mm 2 mps 605 mmHg 48%
    12:00 +21°C° 0.6 mm 2 mps 605 mmHg 47%
    13:00 +23°C° 0.6 mm 2 mps 605 mmHg 46%
    14:00 +21°C° 1.6 mm 2 mps 604 mmHg 54%
    15:00 +20°C° 1.6 mm 2 mps 604 mmHg 62%
    16:00 +19°C° 1.6 mm 1 mps 603 mmHg 69%
    17:00 +18°C° 1.3 mm 1 mps 603 mmHg 75%
    18:00 +16°C° 1.3 mm 1 mps 603 mmHg 81%
    19:00 +15°C° 1.3 mm 1 mps 602 mmHg 87%
    20:00 +14°C° 0.4 mm 1 mps 602 mmHg 87%
    21:00 +13°C° 0.4 mm 1 mps 602 mmHg 88%
    22:00 +12°C° 0.4 mm 1 mps 601 mmHg 89%
    23:00 +11°C° 0 mm 1 mps 601 mmHg 88%
    Show more